Time,TemperatureF,DewpointF,PressureIn,WindDirection,WindDirectionDegrees,WindSpeedMPH,WindSpeedGustMPH,Humidity,HourlyPrecipIn,Conditions,Clouds,dailyrainin,SoftwareType,DateUTC
2013-02-10 00:00:00,19.6,8.2,30.32,SW,221,0.0,3.0,61,0.00,,,0.00,meteohub,2013-02-10 05:00:00,
2013-02-10 00:01:00,19.6,8.2,30.32,SW,224,0.0,3.0,61,0.00,,,0.00,meteohub,2013-02-10 05:01:00,
2013-02-10 00:06:00,19.6,8.2,30.32,West,259,0.0,3.0,61,0.00,,,0.00,meteohub,2013-02-10 05:06:00,
2013-02-10 00:11:00,19.6,8.2,30.32,South,173,0.0,3.0,61,0.00,,,0.00,meteohub,2013-02-10 05:11:00,
2013-02-10 00:16:00,19.4,8.1,30.32,West,259,0.0,2.0,61,0.00,,,0.00,meteohub,2013-02-10 05:16:00,
2013-02-10 00:21:00,19.2,8.4,30.32,West,259,0.0,2.0,62,0.00,,,0.00,meteohub,2013-02-10 05:21:00,
2013-02-10 00:26:00,19.0,8.2,30.32,WSW,258,0.0,2.0,62,0.00,,,0.00,meteohub,2013-02-10 05:26:00,
2013-02-10 00:31:00,18.9,8.4,30.32,SW,220,0.0,1.0,63,0.00,,,0.00,meteohub,2013-02-10 05:31:00,
2013-02-10 00:36:00,18.7,8.2,30.32,WSW,238,0.0,1.0,63,0.00,,,0.00,meteohub,2013-02-10 05:36:00,
2013-02-10 00:41:00,18.3,7.9,30.32,SW,217,0.0,1.0,63,0.00,,,0.00,meteohub,2013-02-10 05:41:00,
2013-02-10 00:46:00,18.1,8.1,30.32,SE,132,0.0,0.0,64,0.00,,,0.00,meteohub,2013-02-10 05:46:00,
2013-02-10 00:51:00,18.0,7.9,30.32,WSW,245,0.0,0.0,64,0.00,,,0.00,meteohub,2013-02-10 05:51:00,
2013-02-10 00:56:00,18.0,7.9,30.32,NNE,18,0.0,0.0,64,0.00,,,0.00,meteohub,2013-02-10 05:56:00,
2013-02-10 01:01:00,18.0,7.9,30.32,SW,234,0.0,2.0,64,0.00,,,0.00,meteohub,2013-02-10 06:01:00,
2013-02-10 01:06:00,17.8,7.7,30.32,SSW,198,0.0,2.0,64,0.00,,,0.00,meteohub,2013-02-10 06:06:00,
2013-02-10 01:11:00,17.6,7.9,30.32,SW,236,1.0,2.0,65,0.00,,,0.00,meteohub,2013-02-10 06:11:00,
2013-02-10 01:16:00,17.4,7.7,30.32,WSW,254,2.0,2.0,65,0.00,,,0.00,meteohub,2013-02-10 06:16:00,
2013-02-10 01:21:00,17.6,7.9,30.32,NW,315,1.0,3.0,65,0.00,,,0.00,meteohub,2013-02-10 06:21:00,
2013-02-10 01:26:00,17.8,8.1,30.32,NW,315,1.0,3.0,65,0.00,,,0.00,meteohub,2013-02-10 06:26:00,
2013-02-10 01:31:00,18.0,8.2,30.32,WSW,245,0.0,3.0,65,0.00,,,0.00,meteohub,2013-02-10 06:31:00,
2013-02-10 01:36:00,18.0,8.2,30.33,NW,315,0.0,3.0,65,0.00,,,0.00,meteohub,2013-02-10 06:36:00,
2013-02-10 01:41:00,18.0,7.9,30.33,SE,127,1.0,3.0,64,0.00,,,0.00,meteohub,2013-02-10 06:41:00,
2013-02-10 01:46:00,18.0,8.2,30.34,SE,127,0.0,1.0,65,0.00,,,0.00,meteohub,2013-02-10 06:46:00,
2013-02-10 01:51:00,17.8,8.1,30.34,South,176,0.0,1.0,65,0.00,,,0.00,meteohub,2013-02-10 06:51:00,
2013-02-10 01:56:00,17.6,8.2,30.34,SE,146,0.0,3.0,66,0.00,,,0.00,meteohub,2013-02-10 06:56:00,
2013-02-10 02:01:00,17.4,8.1,30.34,SE,141,0.0,3.0,66,0.00,,,0.00,meteohub,2013-02-10 07:01:00,
2013-02-10 02:06:00,17.4,8.1,30.34,WSW,258,0.0,3.0,66,0.00,,,0.00,meteohub,2013-02-10 07:06:00,
2013-02-10 02:11:00,17.2,7.9,30.34,SSW,210,0.0,2.0,66,0.00,,,0.00,meteohub,2013-02-10 07:11:00,
2013-02-10 02:16:00,17.1,8.1,30.34,WSW,240,1.0,2.0,67,0.00,,,0.00,meteohub,2013-02-10 07:16:00,
2013-02-10 02:21:00,17.1,8.2,30.34,West,259,0.0,4.0,68,0.00,,,0.00,meteohub,2013-02-10 07:21:00,
2013-02-10 02:26:00,17.1,8.6,30.35,ESE,108,0.0,4.0,69,0.00,,,0.00,meteohub,2013-02-10 07:26:00,
2013-02-10 02:31:00,17.1,8.2,30.35,SSW,212,0.0,4.0,68,0.00,,,0.00,meteohub,2013-02-10 07:31:00,
2013-02-10 02:36:00,16.9,8.2,30.35,SW,224,0.0,4.0,68,0.00,,,0.00,meteohub,2013-02-10 07:36:00,
2013-02-10 02:41:00,16.7,8.1,30.35,SW,235,0.0,4.0,68,0.00,,,0.00,meteohub,2013-02-10 07:41:00,
2013-02-10 02:46:00,16.3,7.7,30.35,SW,235,0.0,0.0,68,0.00,,,0.00,meteohub,2013-02-10 07:46:00,
2013-02-10 02:51:00,16.3,7.9,30.35,NW,323,0.0,0.0,69,0.00,,,0.00,meteohub,2013-02-10 07:51:00,
2013-02-10 02:56:00,16.7,8.1,30.35,NNW,331,0.0,2.0,68,0.00,,,0.00,meteohub,2013-02-10 07:56:00,
2013-02-10 03:01:00,16.9,8.2,30.35,NW,314,0.0,2.0,68,0.00,,,0.00,meteohub,2013-02-10 08:01:00,
2013-02-10 03:06:00,17.1,8.1,30.35,NNW,331,0.0,2.0,67,0.00,,,0.00,meteohub,2013-02-10 08:06:00,
2013-02-10 03:11:00,17.1,7.7,30.35,SW,229,0.0,3.0,66,0.00,,,0.00,meteohub,2013-02-10 08:11:00,
2013-02-10 03:16:00,17.1,7.7,30.35,SW,219,1.0,3.0,66,0.00,,,0.00,meteohub,2013-02-10 08:16:00,
2013-02-10 03:21:00,16.9,7.9,30.34,West,260,0.0,2.0,67,0.00,,,0.00,meteohub,2013-02-10 08:21:00,
2013-02-10 03:26:00,16.5,7.5,30.35,WSW,242,0.0,2.0,67,0.00,,,0.00,meteohub,2013-02-10 08:26:00,
2013-02-10 03:31:00,16.2,7.5,30.34,WSW,240,0.0,2.0,68,0.00,,,0.00,meteohub,2013-02-10 08:31:00,
2013-02-10 03:36:00,16.2,7.5,30.34,SW,232,0.0,1.0,68,0.00,,,0.00,meteohub,2013-02-10 08:36:00,
2013-02-10 03:41:00,16.2,7.5,30.34,WSW,246,0.0,2.0,68,0.00,,,0.00,meteohub,2013-02-10 08:41:00,
2013-02-10 03:46:00,16.2,7.5,30.34,WSW,250,0.0,2.0,68,0.00,,,0.00,meteohub,2013-02-10 08:46:00,
2013-02-10 03:51:00,16.2,7.5,30.34,ENE,58,0.0,2.0,68,0.00,,,0.00,meteohub,2013-02-10 08:51:00,
2013-02-10 03:56:00,16.0,7.3,30.35,West,260,0.0,2.0,68,0.00,,,0.00,meteohub,2013-02-10 08:56:00,
2013-02-10 04:01:00,16.0,7.3,30.35,NE,46,0.0,2.0,68,0.00,,,0.00,meteohub,2013-02-10 09:01:00,
2013-02-10 04:06:00,16.0,7.3,30.35,SSE,149,0.0,1.0,68,0.00,,,0.00,meteohub,2013-02-10 09:06:00,
2013-02-10 04:11:00,15.8,7.2,30.35,WSW,242,0.0,2.0,68,0.00,,,0.00,meteohub,2013-02-10 09:11:00,
2013-02-10 04:16:00,15.8,7.5,30.35,SE,139,0.0,2.0,69,0.00,,,0.00,meteohub,2013-02-10 09:16:00,
2013-02-10 04:21:00,16.0,7.3,30.35,NW,323,0.0,1.0,68,0.00,,,0.00,meteohub,2013-02-10 09:21:00,
2013-02-10 04:26:00,16.0,7.3,30.35,WSW,253,1.0,4.0,68,0.00,,,0.00,meteohub,2013-02-10 09:26:00,
2013-02-10 04:31:00,15.8,7.2,30.36,WSW,252,1.0,4.0,68,0.00,,,0.00,meteohub,2013-02-10 09:31:00,
2013-02-10 04:36:00,16.0,7.0,30.36,SW,235,1.0,4.0,67,0.00,,,0.00,meteohub,2013-02-10 09:36:00,
2013-02-10 04:41:00,16.0,7.0,30.36,SE,141,1.0,2.0,67,0.00,,,0.00,meteohub,2013-02-10 09:41:00,
2013-02-10 04:46:00,16.0,7.0,30.36,West,281,1.0,3.0,67,0.00,,,0.00,meteohub,2013-02-10 09:46:00,
2013-02-10 04:51:00,16.2,6.8,30.36,SW,219,0.0,4.0,66,0.00,,,0.00,meteohub,2013-02-10 09:51:00,
2013-02-10 04:56:00,16.2,6.4,30.36,WSW,253,0.0,4.0,65,0.00,,,0.00,meteohub,2013-02-10 09:56:00,
2013-02-10 05:01:00,16.0,6.3,30.36,SW,224,0.0,4.0,65,0.00,,,0.00,meteohub,2013-02-10 10:01:00,
2013-02-10 05:06:00,16.0,6.3,30.36,SSW,206,0.0,3.0,65,0.00,,,0.00,meteohub,2013-02-10 10:06:00,
2013-02-10 05:11:00,16.0,6.3,30.36,WSW,248,0.0,4.0,65,0.00,,,0.00,meteohub,2013-02-10 10:11:00,
2013-02-10 05:16:00,16.0,5.9,30.36,SW,229,0.0,4.0,64,0.00,,,0.00,meteohub,2013-02-10 10:16:00,
2013-02-10 05:21:00,15.8,6.1,30.36,SE,127,0.0,4.0,65,0.00,,,0.00,meteohub,2013-02-10 10:21:00,
2013-02-10 05:26:00,15.6,5.5,30.36,South,188,0.0,2.0,64,0.00,,,0.00,meteohub,2013-02-10 10:26:00,
2013-02-10 05:31:00,15.4,5.7,30.37,SW,236,0.0,2.0,65,0.00,,,0.00,meteohub,2013-02-10 10:31:00,
2013-02-10 05:36:00,15.6,5.5,30.37,SSW,210,0.0,2.0,64,0.00,,,0.00,meteohub,2013-02-10 10:36:00,
2013-02-10 05:41:00,15.8,5.7,30.37,WSW,258,0.0,2.0,64,0.00,,,0.00,meteohub,2013-02-10 10:41:00,
2013-02-10 05:46:00,15.6,5.4,30.37,SSW,208,0.0,2.0,63,0.00,,,0.00,meteohub,2013-02-10 10:46:00,
2013-02-10 05:51:00,15.6,5.0,30.38,SW,219,0.0,2.0,62,0.00,,,0.00,meteohub,2013-02-10 10:51:00,
2013-02-10 05:56:00,15.8,5.2,30.38,WSW,248,0.0,2.0,62,0.00,,,0.00,meteohub,2013-02-10 10:56:00,
2013-02-10 06:01:00,15.4,5.2,30.38,WSW,254,0.0,2.0,63,0.00,,,0.00,meteohub,2013-02-10 11:01:00,
2013-02-10 06:06:00,15.4,5.2,30.39,SE,125,0.0,0.0,63,0.00,,,0.00,meteohub,2013-02-10 11:06:00,
2013-02-10 06:11:00,15.3,5.4,30.39,WSW,257,0.0,0.0,64,0.00,,,0.00,meteohub,2013-02-10 11:11:00,
2013-02-10 06:16:00,14.9,5.0,30.40,WSW,257,0.0,0.0,64,0.00,,,0.00,meteohub,2013-02-10 11:16:00,
2013-02-10 06:21:00,14.4,5.0,30.40,WSW,257,0.0,0.0,66,0.00,,,0.00,meteohub,2013-02-10 11:21:00,
2013-02-10 06:26:00,14.2,5.2,30.40,WSW,257,0.0,0.0,67,0.00,,,0.00,meteohub,2013-02-10 11:26:00,
2013-02-10 06:31:00,13.8,5.2,30.41,WSW,257,0.0,0.0,68,0.00,,,0.00,meteohub,2013-02-10 11:31:00,
2013-02-10 06:36:00,13.6,5.0,30.41,WSW,257,0.0,0.0,68,0.00,,,0.00,meteohub,2013-02-10 11:36:00,
2013-02-10 06:41:00,13.8,5.5,30.40,East,93,0.0,0.0,69,0.00,,,0.00,meteohub,2013-02-10 11:41:00,
2013-02-10 06:46:00,14.2,5.2,30.41,SW,232,1.0,3.0,67,0.00,,,0.00,meteohub,2013-02-10 11:46:00,
2013-02-10 06:51:00,14.4,5.0,30.41,SE,132,0.0,3.0,66,0.00,,,0.00,meteohub,2013-02-10 11:51:00,
2013-02-10 06:56:00,14.5,5.0,30.41,East,91,0.0,3.0,65,0.00,,,0.00,meteohub,2013-02-10 11:56:00,
2013-02-10 07:01:00,14.5,5.0,30.41,WSW,238,0.0,2.0,65,0.00,,,0.00,meteohub,2013-02-10 12:01:00,
2013-02-10 07:06:00,14.7,5.2,30.41,SSW,208,0.0,2.0,65,0.00,,,0.00,meteohub,2013-02-10 12:06:00,
2013-02-10 07:11:00,14.9,5.0,30.41,SW,229,0.0,0.0,64,0.00,,,0.00,meteohub,2013-02-10 12:11:00,
2013-02-10 07:16:00,15.1,4.8,30.41,SSW,211,1.0,0.0,63,0.00,,,0.00,meteohub,2013-02-10 12:16:00,
2013-02-10 07:21:00,15.3,5.0,30.41,WSW,252,0.0,2.0,63,0.00,,,0.00,meteohub,2013-02-10 12:21:00,
2013-02-10 07:26:00,15.3,5.0,30.41,WSW,249,0.0,2.0,63,0.00,,,0.00,meteohub,2013-02-10 12:26:00,
2013-02-10 07:31:00,15.4,5.2,30.41,WSW,249,0.0,2.0,63,0.00,,,0.00,meteohub,2013-02-10 12:31:00,
2013-02-10 07:36:00,15.6,5.5,30.42,WSW,238,0.0,2.0,64,0.00,,,0.00,meteohub,2013-02-10 12:36:00,
2013-02-10 07:41:00,16.0,5.5,30.42,WSW,238,1.0,1.0,63,0.00,,,0.00,meteohub,2013-02-10 12:41:00,
2013-02-10 07:46:00,16.2,5.7,30.41,ESE,115,0.0,1.0,63,0.00,,,0.00,meteohub,2013-02-10 12:46:00,
2013-02-10 07:51:00,16.9,6.1,30.41,SSE,148,0.0,3.0,62,0.00,,,0.00,meteohub,2013-02-10 12:51:00,
2013-02-10 07:56:00,17.2,6.1,30.42,SSE,156,0.0,3.0,61,0.00,,,0.00,meteohub,2013-02-10 12:56:00,
2013-02-10 08:01:00,17.4,6.3,30.42,SSW,195,0.0,3.0,61,0.00,,,0.00,meteohub,2013-02-10 13:01:00,
2013-02-10 08:06:00,17.8,6.6,30.42,SE,131,0.0,2.0,61,0.00,,,0.00,meteohub,2013-02-10 13:06:00,
2013-02-10 08:11:00,18.1,5.9,30.43,South,174,0.0,0.0,58,0.00,,,0.00,meteohub,2013-02-10 13:11:00,
2013-02-10 08:16:00,18.7,6.4,30.43,West,266,0.0,2.0,58,0.00,,,0.00,meteohub,2013-02-10 13:16:00,
2013-02-10 08:21:00,19.0,6.3,30.43,ENE,75,0.0,2.0,57,0.00,,,0.00,meteohub,2013-02-10 13:21:00,
2013-02-10 08:26:00,19.2,5.7,30.44,SW,225,0.0,3.0,55,0.00,,,0.00,meteohub,2013-02-10 13:26:00,
2013-02-10 08:31:00,19.6,6.1,30.44,WSW,243,0.0,3.0,55,0.00,,,0.00,meteohub,2013-02-10 13:31:00,
2013-02-10 08:36:00,19.9,5.9,30.44,SSW,211,0.0,3.0,54,0.00,,,0.00,meteohub,2013-02-10 13:36:00,
2013-02-10 08:41:00,20.1,6.1,30.44,WSW,249,0.0,2.0,54,0.00,,,0.00,meteohub,2013-02-10 13:41:00,
2013-02-10 08:46:00,20.5,6.4,30.44,WSW,252,0.0,2.0,54,0.00,,,0.00,meteohub,2013-02-10 13:46:00,
2013-02-10 08:51:00,20.5,5.7,30.44,SSE,162,1.0,3.0,52,0.00,,,0.00,meteohub,2013-02-10 13:51:00,
2013-02-10 08:56:00,20.7,5.9,30.45,WSW,248,0.0,4.0,52,0.00,,,0.00,meteohub,2013-02-10 13:56:00,
2013-02-10 09:01:00,20.8,6.4,30.45,WSW,250,0.0,4.0,53,0.00,,,0.00,meteohub,2013-02-10 14:01:00,
2013-02-10 09:06:00,21.2,6.8,30.45,SW,226,0.0,3.0,53,0.00,,,0.00,meteohub,2013-02-10 14:06:00,
2013-02-10 09:11:00,21.4,6.4,30.45,SSE,155,0.0,2.0,52,0.00,,,0.00,meteohub,2013-02-10 14:11:00,
2013-02-10 09:16:00,21.4,6.1,30.45,West,267,0.0,3.0,51,0.00,,,0.00,meteohub,2013-02-10 14:16:00,
2013-02-10 09:21:00,21.7,7.2,30.45,South,169,0.0,3.0,53,0.00,,,0.00,meteohub,2013-02-10 14:21:00,
2013-02-10 09:26:00,22.1,7.5,30.45,SW,225,0.0,3.0,53,0.00,,,0.00,meteohub,2013-02-10 14:26:00,
2013-02-10 09:31:00,22.3,7.3,30.45,SE,142,0.0,3.0,52,0.00,,,0.00,meteohub,2013-02-10 14:31:00,
2013-02-10 09:36:00,22.6,8.1,30.46,NW,319,0.0,3.0,53,0.00,,,0.00,meteohub,2013-02-10 14:36:00,
2013-02-10 09:41:00,22.8,7.9,30.45,East,79,1.0,3.0,52,0.00,,,0.00,meteohub,2013-02-10 14:41:00,
2013-02-10 09:46:00,23.2,7.7,30.46,WSW,247,1.0,3.0,51,0.00,,,0.00,meteohub,2013-02-10 14:46:00,
2013-02-10 09:51:00,23.5,7.2,30.46,WSW,250,1.0,2.0,49,0.00,,,0.00,meteohub,2013-02-10 14:51:00,
2013-02-10 09:56:00,23.5,7.7,30.46,WSW,243,0.0,2.0,50,0.00,,,0.00,meteohub,2013-02-10 14:56:00,
2013-02-10 10:01:00,23.9,7.9,30.46,WSW,256,0.0,2.0,50,0.00,,,0.00,meteohub,2013-02-10 15:01:00,
2013-02-10 10:06:00,24.3,8.2,30.46,SE,124,0.0,2.0,50,0.00,,,0.00,meteohub,2013-02-10 15:06:00,
2013-02-10 10:11:00,24.6,9.1,30.46,SSW,203,0.0,2.0,51,0.00,,,0.00,meteohub,2013-02-10 15:11:00,
2013-02-10 10:16:00,24.6,8.6,30.46,ENE,59,0.0,2.0,50,0.00,,,0.00,meteohub,2013-02-10 15:16:00,
2013-02-10 10:21:00,25.0,8.1,30.46,WSW,257,0.0,2.0,48,0.00,,,0.00,meteohub,2013-02-10 15:21:00,
2013-02-10 10:26:00,25.2,7.7,30.46,ENE,68,0.0,2.0,47,0.00,,,0.00,meteohub,2013-02-10 15:26:00,
2013-02-10 10:31:00,25.5,9.5,30.46,WSW,242,0.0,1.0,50,0.00,,,0.00,meteohub,2013-02-10 15:31:00,
2013-02-10 10:36:00,25.9,9.0,30.46,SW,236,0.0,0.0,48,0.00,,,0.00,meteohub,2013-02-10 15:36:00,
2013-02-10 10:41:00,26.1,9.1,30.47,SW,226,0.0,4.0,48,0.00,,,0.00,meteohub,2013-02-10 15:41:00,
2013-02-10 10:46:00,26.4,9.9,30.47,WSW,246,0.0,4.0,49,0.00,,,0.00,meteohub,2013-02-10 15:46:00,
2013-02-10 10:51:00,27.0,10.4,30.47,SW,229,1.0,4.0,49,0.00,,,0.00,meteohub,2013-02-10 15:51:00,
2013-02-10 10:56:00,27.0,9.0,30.47,WSW,245,0.0,3.0,46,0.00,,,0.00,meteohub,2013-02-10 15:56:00,
2013-02-10 11:01:00,27.3,10.2,30.46,West,271,1.0,3.0,48,0.00,,,0.00,meteohub,2013-02-10 16:01:00,
2013-02-10 11:06:00,27.3,9.3,30.47,NW,312,0.0,3.0,46,0.00,,,0.00,meteohub,2013-02-10 16:06:00,
2013-02-10 11:11:00,27.5,9.5,30.47,SW,215,0.0,3.0,46,0.00,,,0.00,meteohub,2013-02-10 16:11:00,
2013-02-10 11:17:00,27.9,9.7,30.46,SSE,153,0.0,3.0,46,0.00,,,0.00,meteohub,2013-02-10 16:17:00,
2013-02-10 11:22:00,28.0,9.9,30.46,ESE,106,0.0,2.0,46,0.00,,,0.00,meteohub,2013-02-10 16:22:00,
2013-02-10 11:27:00,28.2,10.0,30.45,WSW,254,1.0,2.0,46,0.00,,,0.00,meteohub,2013-02-10 16:27:00,
2013-02-10 11:32:00,28.6,10.4,30.45,SW,228,1.0,2.0,46,0.00,,,0.00,meteohub,2013-02-10 16:32:00,
2013-02-10 11:37:00,28.8,11.1,30.45,SW,224,1.0,3.0,47,0.00,,,0.00,meteohub,2013-02-10 16:37:00,
2013-02-10 11:42:00,29.1,11.5,30.45,SW,232,3.0,3.0,47,0.00,,,0.00,meteohub,2013-02-10 16:42:00,
2013-02-10 11:47:00,29.5,11.3,30.45,SW,231,0.0,4.0,46,0.00,,,0.00,meteohub,2013-02-10 16:47:00,
2013-02-10 11:52:00,30.0,11.7,30.45,WSW,256,0.0,4.0,46,0.00,,,0.00,meteohub,2013-02-10 16:52:00,
2013-02-10 11:57:00,30.4,12.0,30.44,West,281,0.0,4.0,46,0.00,,,0.00,meteohub,2013-02-10 16:57:00,
2013-02-10 12:02:00,30.6,10.8,30.44,WSW,255,0.0,2.0,43,0.00,,,0.00,meteohub,2013-02-10 17:02:00,
2013-02-10 12:07:00,30.6,12.2,30.44,WSW,239,0.0,3.0,46,0.00,,,0.00,meteohub,2013-02-10 17:07:00,
2013-02-10 12:12:00,30.9,11.5,30.43,SW,236,0.0,3.0,44,0.00,,,0.00,meteohub,2013-02-10 17:12:00,
2013-02-10 12:17:00,31.3,11.8,30.43,WSW,252,1.0,3.0,44,0.00,,,0.00,meteohub,2013-02-10 17:17:00,
2013-02-10 12:22:00,31.5,11.5,30.43,WSW,243,0.0,3.0,43,0.00,,,0.00,meteohub,2013-02-10 17:22:00,
2013-02-10 12:27:00,31.8,12.4,30.42,West,260,1.0,4.0,44,0.00,,,0.00,meteohub,2013-02-10 17:27:00,
2013-02-10 12:32:00,32.2,12.7,30.42,WSW,250,0.0,4.0,44,0.00,,,0.00,meteohub,2013-02-10 17:32:00,
2013-02-10 12:37:00,32.4,11.3,30.42,WNW,284,2.0,3.0,41,0.00,,,0.00,meteohub,2013-02-10 17:37:00,
2013-02-10 12:42:00,32.5,13.1,30.42,WSW,253,0.0,3.0,44,0.00,,,0.00,meteohub,2013-02-10 17:42:00,
2013-02-10 12:47:00,33.1,13.5,30.42,West,266,0.0,2.0,44,0.00,,,0.00,meteohub,2013-02-10 17:47:00,
2013-02-10 12:52:00,33.3,13.1,30.42,West,269,0.0,2.0,43,0.00,,,0.00,meteohub,2013-02-10 17:52:00,
2013-02-10 12:57:00,33.6,12.4,30.41,WSW,244,0.0,1.0,41,0.00,,,0.00,meteohub,2013-02-10 17:57:00,
2013-02-10 13:02:00,33.8,13.1,30.41,West,275,0.0,0.0,42,0.00,,,0.00,meteohub,2013-02-10 18:02:00,
2013-02-10 13:07:00,34.2,13.5,30.40,West,271,0.0,0.0,42,0.00,,,0.00,meteohub,2013-02-10 18:07:00,
2013-02-10 13:12:00,34.3,12.6,30.40,WSW,253,0.0,1.0,40,0.00,,,0.00,meteohub,2013-02-10 18:12:00,
2013-02-10 13:17:00,34.0,12.7,30.40,East,84,0.0,1.0,41,0.00,,,0.00,meteohub,2013-02-10 18:17:00,
2013-02-10 13:22:00,33.8,12.0,30.40,WSW,250,0.0,1.0,40,0.00,,,0.00,meteohub,2013-02-10 18:22:00,
2013-02-10 13:27:00,34.0,13.3,30.40,West,269,0.0,3.0,42,0.00,,,0.00,meteohub,2013-02-10 18:27:00,
2013-02-10 13:32:00,34.2,12.4,30.40,WSW,255,0.0,3.0,40,0.00,,,0.00,meteohub,2013-02-10 18:32:00,
2013-02-10 13:37:00,34.3,12.0,30.40,SW,217,0.0,3.0,39,0.00,,,0.00,meteohub,2013-02-10 18:37:00,
2013-02-10 13:42:00,34.5,12.7,30.39,WSW,255,0.0,2.0,40,0.00,,,0.00,meteohub,2013-02-10 18:42:00,
2013-02-10 13:47:00,34.9,12.9,30.39,WSW,239,0.0,1.0,40,0.00,,,0.00,meteohub,2013-02-10 18:47:00,
2013-02-10 13:52:00,35.1,12.0,30.39,NW,304,0.0,1.0,38,0.00,,,0.00,meteohub,2013-02-10 18:52:00,
2013-02-10 13:57:00,35.1,12.0,30.39,WSW,253,3.0,0.0,38,0.00,,,0.00,meteohub,2013-02-10 18:57:00,
2013-02-10 14:02:00,35.1,11.5,30.39,SE,143,0.0,3.0,37,0.00,,,0.00,meteohub,2013-02-10 19:02:00,
2013-02-10 14:07:00,35.4,12.4,30.39,ESE,121,0.0,3.0,38,0.00,,,0.00,meteohub,2013-02-10 19:07:00,
2013-02-10 14:12:00,35.8,12.7,30.39,WSW,250,0.0,3.0,38,0.00,,,0.00,meteohub,2013-02-10 19:12:00,
2013-02-10 14:17:00,36.0,11.7,30.39,West,259,0.0,1.0,36,0.00,,,0.00,meteohub,2013-02-10 19:17:00,
2013-02-10 14:22:00,36.1,12.4,30.39,West,267,0.0,0.0,37,0.00,,,0.00,meteohub,2013-02-10 19:22:00,
2013-02-10 14:27:00,36.1,9.9,30.39,NW,319,0.0,2.0,33,0.00,,,0.00,meteohub,2013-02-10 19:27:00,
2013-02-10 14:32:00,36.3,12.6,30.40,SW,226,0.0,2.0,37,0.00,,,0.00,meteohub,2013-02-10 19:32:00,
2013-02-10 14:37:00,36.7,13.5,30.40,WSW,257,0.0,1.0,38,0.00,,,0.00,meteohub,2013-02-10 19:37:00,
2013-02-10 14:42:00,37.0,10.6,30.40,WSW,240,0.0,3.0,33,0.00,,,0.00,meteohub,2013-02-10 19:42:00,
2013-02-10 14:47:00,37.6,11.7,30.40,WSW,243,0.0,3.0,34,0.00,,,0.00,meteohub,2013-02-10 19:47:00,
2013-02-10 14:52:00,37.9,13.3,30.40,West,274,0.0,3.0,36,0.00,,,0.00,meteohub,2013-02-10 19:52:00,
2013-02-10 14:57:00,38.3,10.9,30.39,SW,235,1.0,1.0,32,0.00,,,0.00,meteohub,2013-02-10 19:57:00,
2013-02-10 15:02:00,38.7,12.7,30.39,SW,235,0.0,1.0,34,0.00,,,0.00,meteohub,2013-02-10 20:02:00,
2013-02-10 15:07:00,38.8,9.3,30.38,WSW,253,1.0,1.0,29,0.00,,,0.00,meteohub,2013-02-10 20:07:00,
2013-02-10 15:12:00,38.8,10.8,30.38,West,260,0.0,2.0,31,0.00,,,0.00,meteohub,2013-02-10 20:12:00,
2013-02-10 15:17:00,39.0,10.9,30.38,West,260,0.0,2.0,31,0.00,,,0.00,meteohub,2013-02-10 20:17:00,
2013-02-10 15:22:00,39.0,10.2,30.38,West,260,0.0,2.0,30,0.00,,,0.00,meteohub,2013-02-10 20:22:00,
2013-02-10 15:27:00,38.8,10.0,30.38,WSW,255,0.0,0.0,30,0.00,,,0.00,meteohub,2013-02-10 20:27:00,
2013-02-10 15:32:00,38.1,8.6,30.37,WSW,246,0.0,0.0,29,0.00,,,0.00,meteohub,2013-02-10 20:32:00,
2013-02-10 15:37:00,37.8,11.8,30.37,WSW,246,0.0,0.0,34,0.00,,,0.00,meteohub,2013-02-10 20:37:00,
2013-02-10 15:42:00,37.6,11.1,30.37,WSW,243,0.0,0.0,33,0.00,,,0.00,meteohub,2013-02-10 20:42:00,
2013-02-10 15:47:00,37.2,7.9,30.36,WSW,248,0.0,0.0,29,0.00,,,0.00,meteohub,2013-02-10 20:47:00,
2013-02-10 15:52:00,36.7,9.5,30.37,WSW,248,0.0,0.0,32,0.00,,,0.00,meteohub,2013-02-10 20:52:00,
2013-02-10 15:57:00,36.1,7.0,30.37,WSW,240,0.0,0.0,29,0.00,,,0.00,meteohub,2013-02-10 20:57:00,
2013-02-10 16:02:00,35.8,10.2,30.38,WSW,240,0.0,0.0,34,0.00,,,0.00,meteohub,2013-02-10 21:02:00,
2013-02-10 16:07:00,35.4,9.9,30.38,WSW,247,0.0,0.0,34,0.00,,,0.00,meteohub,2013-02-10 21:07:00,
2013-02-10 16:12:00,35.2,10.9,30.38,WSW,248,0.0,2.0,36,0.00,,,0.00,meteohub,2013-02-10 21:12:00,
2013-02-10 16:17:00,34.9,13.6,30.38,WSW,248,0.0,2.0,41,0.00,,,0.00,meteohub,2013-02-10 21:17:00,
2013-02-10 16:22:00,34.7,14.0,30.38,WSW,248,0.0,0.0,42,0.00,,,0.00,meteohub,2013-02-10 21:22:00,
2013-02-10 16:27:00,34.9,11.8,30.38,West,259,0.0,0.0,38,0.00,,,0.00,meteohub,2013-02-10 21:27:00,
2013-02-10 16:32:00,34.5,12.0,30.37,West,259,0.0,1.0,39,0.00,,,0.00,meteohub,2013-02-10 21:32:00,
2013-02-10 16:37:00,34.3,13.6,30.37,West,259,0.0,1.0,42,0.00,,,0.00,meteohub,2013-02-10 21:37:00,
2013-02-10 16:42:00,33.6,13.5,30.37,West,259,0.0,0.0,43,0.00,,,0.00,meteohub,2013-02-10 21:42:00,
2013-02-10 16:47:00,33.3,14.2,30.37,West,259,0.0,0.0,45,0.00,,,0.00,meteohub,2013-02-10 21:47:00,
2013-02-10 16:52:00,32.7,15.3,30.37,West,259,0.0,0.0,48,0.00,,,0.00,meteohub,2013-02-10 21:52:00,
2013-02-10 16:57:00,32.4,16.3,30.37,West,259,0.0,0.0,51,0.00,,,0.00,meteohub,2013-02-10 21:57:00,
2013-02-10 17:02:00,31.6,16.5,30.37,West,259,0.0,0.0,53,0.00,,,0.00,meteohub,2013-02-10 22:02:00,
2013-02-10 17:08:00,31.5,17.2,30.37,West,259,0.0,0.0,55,0.00,,,0.00,meteohub,2013-02-10 22:08:00,
2013-02-10 17:13:00,31.3,17.8,30.38,West,259,0.0,0.0,57,0.00,,,0.00,meteohub,2013-02-10 22:13:00,
2013-02-10 17:18:00,30.7,18.5,30.38,West,259,0.0,0.0,60,0.00,,,0.00,meteohub,2013-02-10 22:18:00,
2013-02-10 17:23:00,30.0,19.0,30.38,West,259,0.0,0.0,63,0.00,,,0.00,meteohub,2013-02-10 22:23:00,
2013-02-10 17:28:00,29.7,19.0,30.38,West,259,0.0,0.0,64,0.00,,,0.00,meteohub,2013-02-10 22:28:00,
2013-02-10 17:33:00,29.1,18.9,30.38,West,259,0.0,0.0,65,0.00,,,0.00,meteohub,2013-02-10 22:33:00,
2013-02-10 17:38:00,28.8,18.5,30.38,West,259,0.0,0.0,65,0.00,,,0.00,meteohub,2013-02-10 22:38:00,
2013-02-10 17:43:00,28.2,18.3,30.38,West,259,0.0,0.0,66,0.00,,,0.00,meteohub,2013-02-10 22:43:00,
2013-02-10 17:48:00,27.9,18.3,30.38,West,259,0.0,0.0,67,0.00,,,0.00,meteohub,2013-02-10 22:48:00,
2013-02-10 17:53:00,27.5,18.3,30.37,West,259,0.0,0.0,68,0.00,,,0.00,meteohub,2013-02-10 22:53:00,
2013-02-10 17:58:00,27.1,18.0,30.38,West,259,0.0,0.0,68,0.00,,,0.00,meteohub,2013-02-10 22:58:00,
2013-02-10 18:03:00,27.0,18.1,30.38,West,259,0.0,0.0,69,0.00,,,0.00,meteohub,2013-02-10 23:03:00,
2013-02-10 18:08:00,26.6,18.1,30.38,West,259,0.0,0.0,70,0.00,,,0.00,meteohub,2013-02-10 23:08:00,
2013-02-10 18:13:00,26.4,18.0,30.38,West,259,0.0,0.0,70,0.00,,,0.00,meteohub,2013-02-10 23:13:00,
2013-02-10 18:18:00,26.2,18.1,30.38,West,259,0.0,0.0,71,0.00,,,0.00,meteohub,2013-02-10 23:18:00,
2013-02-10 18:23:00,26.2,18.5,30.38,West,259,0.0,0.0,72,0.00,,,0.00,meteohub,2013-02-10 23:23:00,
2013-02-10 18:28:00,26.1,18.7,30.38,West,259,0.0,0.0,73,0.00,,,0.00,meteohub,2013-02-10 23:28:00,
2013-02-10 18:33:00,25.9,18.5,30.38,West,259,0.0,0.0,73,0.00,,,0.00,meteohub,2013-02-10 23:33:00,
2013-02-10 18:38:00,25.9,18.7,30.38,West,259,0.0,0.0,74,0.00,,,0.00,meteohub,2013-02-10 23:38:00,
2013-02-10 18:43:00,25.5,18.3,30.38,West,259,0.0,0.0,74,0.00,,,0.00,meteohub,2013-02-10 23:43:00,
2013-02-10 18:48:00,25.5,18.3,30.38,West,259,0.0,0.0,74,0.00,,,0.00,meteohub,2013-02-10 23:48:00,
2013-02-10 18:53:00,25.3,18.1,30.38,West,259,0.0,0.0,74,0.00,,,0.00,meteohub,2013-02-10 23:53:00,
2013-02-10 18:58:00,25.0,18.1,30.38,West,259,0.0,0.0,75,0.00,,,0.00,meteohub,2013-02-10 23:58:00,
2013-02-10 19:03:00,25.0,18.5,30.38,West,259,0.0,0.0,76,0.00,,,0.00,meteohub,2013-02-11 00:03:00,
2013-02-10 19:08:00,24.6,18.1,30.38,West,259,0.0,0.0,76,0.00,,,0.00,meteohub,2013-02-11 00:08:00,
2013-02-10 19:13:00,24.4,18.0,30.38,West,259,0.0,0.0,76,0.00,,,0.00,meteohub,2013-02-11 00:13:00,
2013-02-10 19:18:00,24.3,17.8,30.38,West,259,0.0,0.0,76,0.00,,,0.00,meteohub,2013-02-11 00:18:00,
2013-02-10 19:23:00,23.9,17.8,30.38,West,259,0.0,0.0,77,0.00,,,0.00,meteohub,2013-02-11 00:23:00,
2013-02-10 19:28:00,23.5,17.4,30.38,West,259,0.0,0.0,77,0.00,,,0.00,meteohub,2013-02-11 00:28:00,
2013-02-10 19:33:00,23.4,17.6,30.38,West,259,0.0,0.0,78,0.00,,,0.00,meteohub,2013-02-11 00:33:00,
2013-02-10 19:38:00,23.2,17.4,30.37,WSW,258,0.0,0.0,78,0.00,,,0.00,meteohub,2013-02-11 00:38:00,
2013-02-10 19:43:00,22.8,16.7,30.38,West,259,0.0,0.0,77,0.00,,,0.00,meteohub,2013-02-11 00:43:00,
2013-02-10 19:48:00,22.6,16.9,30.38,West,259,0.0,0.0,78,0.00,,,0.00,meteohub,2013-02-11 00:48:00,
2013-02-10 19:53:00,22.6,16.9,30.38,West,259,0.0,0.0,78,0.00,,,0.00,meteohub,2013-02-11 00:53:00,
2013-02-10 19:58:00,22.5,16.7,30.38,West,259,0.0,0.0,78,0.00,,,0.00,meteohub,2013-02-11 00:58:00,
2013-02-10 20:03:00,22.5,16.9,30.38,West,259,0.0,0.0,79,0.00,,,0.00,meteohub,2013-02-11 01:03:00,
2013-02-10 20:08:00,22.5,16.9,30.38,West,259,0.0,0.0,79,0.00,,,0.00,meteohub,2013-02-11 01:08:00,
2013-02-10 20:13:00,22.5,16.9,30.38,WSW,258,0.0,0.0,79,0.00,,,0.00,meteohub,2013-02-11 01:13:00,
2013-02-10 20:18:00,22.3,16.7,30.38,West,259,0.0,0.0,79,0.00,,,0.00,meteohub,2013-02-11 01:18:00,
2013-02-10 20:23:00,22.1,16.5,30.38,West,259,0.0,0.0,79,0.00,,,0.00,meteohub,2013-02-11 01:23:00,
2013-02-10 20:28:00,21.9,16.3,30.38,WSW,258,0.0,0.0,79,0.00,,,0.00,meteohub,2013-02-11 01:28:00,
2013-02-10 20:33:00,21.9,16.7,30.38,West,259,0.0,0.0,80,0.00,,,0.00,meteohub,2013-02-11 01:33:00,
2013-02-10 20:38:00,22.1,16.9,30.37,West,259,0.0,0.0,80,0.00,,,0.00,meteohub,2013-02-11 01:38:00,
2013-02-10 20:43:00,22.3,17.4,30.37,West,259,0.0,0.0,81,0.00,,,0.00,meteohub,2013-02-11 01:43:00,
2013-02-10 20:48:00,22.3,17.4,30.37,West,259,0.0,0.0,81,0.00,,,0.00,meteohub,2013-02-11 01:48:00,
2013-02-10 20:53:00,22.5,17.6,30.37,West,259,0.0,0.0,81,0.00,,,0.00,meteohub,2013-02-11 01:53:00,
2013-02-10 20:58:00,22.6,17.8,30.36,West,259,0.0,0.0,81,0.00,,,0.00,meteohub,2013-02-11 01:58:00,
2013-02-10 21:03:00,22.8,18.0,30.36,West,259,0.0,0.0,81,0.00,,,0.00,meteohub,2013-02-11 02:03:00,
2013-02-10 21:08:00,23.0,18.0,30.36,West,259,0.0,0.0,81,0.00,,,0.00,meteohub,2013-02-11 02:08:00,
2013-02-10 21:13:00,23.0,18.0,30.36,West,259,0.0,0.0,81,0.00,,,0.00,meteohub,2013-02-11 02:13:00,
2013-02-10 21:18:00,23.0,18.0,30.36,West,259,0.0,0.0,81,0.00,,,0.00,meteohub,2013-02-11 02:18:00,
2013-02-10 21:23:00,22.8,18.0,30.36,West,259,0.0,0.0,81,0.00,,,0.00,meteohub,2013-02-11 02:23:00,
2013-02-10 21:28:00,22.8,18.0,30.35,West,259,0.0,0.0,81,0.00,,,0.00,meteohub,2013-02-11 02:28:00,
2013-02-10 21:33:00,22.8,18.0,30.36,West,259,0.0,0.0,81,0.00,,,0.00,meteohub,2013-02-11 02:33:00,
2013-02-10 21:38:00,22.6,17.8,30.36,West,259,0.0,0.0,81,0.00,,,0.00,meteohub,2013-02-11 02:38:00,
2013-02-10 21:43:00,22.6,18.0,30.36,West,259,0.0,0.0,82,0.00,,,0.00,meteohub,2013-02-11 02:43:00,
2013-02-10 21:48:00,22.5,17.8,30.36,West,259,0.0,0.0,82,0.00,,,0.00,meteohub,2013-02-11 02:48:00,
2013-02-10 21:53:00,22.5,17.8,30.35,West,259,0.0,0.0,82,0.00,,,0.00,meteohub,2013-02-11 02:53:00,
2013-02-10 21:58:00,22.5,18.1,30.35,West,259,0.0,0.0,83,0.00,,,0.00,meteohub,2013-02-11 02:58:00,
2013-02-10 22:03:00,22.5,18.1,30.35,West,259,0.0,0.0,83,0.00,,,0.00,meteohub,2013-02-11 03:03:00,
2013-02-10 22:08:00,22.6,18.3,30.35,West,259,0.0,0.0,83,0.00,,,0.00,meteohub,2013-02-11 03:08:00,
2013-02-10 22:13:00,22.6,18.3,30.35,WSW,258,0.0,0.0,83,0.00,,,0.00,meteohub,2013-02-11 03:13:00,
2013-02-10 22:18:00,22.8,18.5,30.35,West,259,0.0,0.0,83,0.00,,,0.00,meteohub,2013-02-11 03:18:00,
2013-02-10 22:23:00,23.2,19.0,30.35,West,259,0.0,0.0,84,0.00,,,0.00,meteohub,2013-02-11 03:23:00,
2013-02-10 22:28:00,23.4,19.2,30.35,WSW,258,0.0,0.0,84,0.00,,,0.00,meteohub,2013-02-11 03:28:00,
2013-02-10 22:33:00,23.5,19.4,30.34,West,259,0.0,0.0,84,0.00,,,0.00,meteohub,2013-02-11 03:33:00,
2013-02-10 22:38:00,23.7,19.6,30.34,West,259,0.0,0.0,84,0.00,,,0.00,meteohub,2013-02-11 03:38:00,
2013-02-10 22:43:00,23.7,19.4,30.34,West,259,0.0,0.0,83,0.00,,,0.00,meteohub,2013-02-11 03:43:00,
2013-02-10 22:48:00,23.9,19.6,30.34,West,259,0.0,0.0,83,0.00,,,0.00,meteohub,2013-02-11 03:48:00,
2013-02-10 22:53:00,24.1,19.8,30.33,West,259,0.0,0.0,83,0.00,,,0.00,meteohub,2013-02-11 03:53:00,
2013-02-10 22:58:00,24.3,19.8,30.33,West,259,0.0,0.0,83,0.00,,,0.00,meteohub,2013-02-11 03:58:00,
2013-02-10 23:03:00,24.3,19.8,30.33,West,259,0.0,0.0,83,0.00,,,0.00,meteohub,2013-02-11 04:03:00,
2013-02-10 23:08:00,24.4,20.3,30.33,West,259,0.0,0.0,84,0.00,,,0.00,meteohub,2013-02-11 04:08:00,
2013-02-10 23:13:00,24.6,20.5,30.33,West,259,0.0,0.0,84,0.00,,,0.00,meteohub,2013-02-11 04:13:00,
2013-02-10 23:18:00,24.8,20.7,30.32,West,259,0.0,0.0,84,0.00,,,0.00,meteohub,2013-02-11 04:18:00,
2013-02-10 23:23:00,25.0,20.8,30.33,West,259,0.0,0.0,84,0.00,,,0.00,meteohub,2013-02-11 04:23:00,
2013-02-10 23:28:00,25.2,21.0,30.33,West,259,0.0,0.0,84,0.00,,,0.00,meteohub,2013-02-11 04:28:00,
2013-02-10 23:33:00,25.3,21.2,30.33,West,259,0.0,0.0,84,0.00,,,0.00,meteohub,2013-02-11 04:33:00,
2013-02-10 23:38:00,25.3,21.2,30.33,West,259,0.0,0.0,84,0.00,,,0.00,meteohub,2013-02-11 04:38:00,
2013-02-10 23:43:00,25.5,21.4,30.33,West,259,0.0,0.0,84,0.00,,,0.00,meteohub,2013-02-11 04:43:00,
2013-02-10 23:48:00,25.7,21.6,30.33,West,259,0.0,0.0,84,0.00,,,0.00,meteohub,2013-02-11 04:48:00,
2013-02-10 23:53:00,25.7,21.6,30.33,West,259,0.0,0.0,84,0.00,,,0.00,meteohub,2013-02-11 04:53:00,
2013-02-10 23:58:00,25.9,21.7,30.33,West,259,0.0,0.0,84,0.00,,,0.00,meteohub,2013-02-11 04:58:00,